Huntsville Madison, AL

12:44 AM CDT on July 28, 2017 (GMT -0500)
Huntsville Madison

Weather History for KMDQ - November, 2013

Change the Weather History Date:

Sunday, November 24, 2013

  Actual Average (KHSV) Record (KHSV)
Temperature  
Mean Temperature 30 °F -  
Max Temperature 37 °F 59 °F 80 °F (1921)
Min Temperature 23 °F 38 °F 15 °F (1970)
Degree Days  
Heating Degree Days 35    
Moisture  
Dew Point 9 °F    
Average Humidity 44    
Maximum Humidity 68    
Minimum Humidity 20    
Precipitation  
Precipitation 0.00 in - - ()
Sea Level Pressure  
Sea Level Pressure 30.49 in    
Wind  
Wind Speed 10 mph (NNE)    
Max Wind Speed 17 mph    
Max Gust Speed 24 mph    
Visibility 10 miles    
Events      
Averages and records for this station are not official NWS values.
T = Trace of Precipitation, MM = Missing Value Source: NWS Daily Summary

Daily Weather History Graph

Daily Weather History Graph

Search for Another Location

Airport or City:

Trip Planner

Search our weather history database for the weather conditions in past years. The results will help you decide how hot, cold, wet, or windy it might be!

Date:

Astronomy

Nov. 24, 2013 Rise Set
Actual Time 6:29 AM CST 4:36 PM CST
Civil Twilight 6:01 AM CST 5:03 PM CST
Nautical Twilight 5:30 AM CST 5:34 PM CST
Astronomical Twilight 5:00 AM CST 6:05 PM CST
Moon 10:54 PM CST (11/24) 11:23 AM CST (11/24)
Length of Visible Light 11h 01m
Length of Day
10h 07m
Waning Gibbous, 60% of the Moon is Illuminated
Nov 24
Waning Gibbous
Nov 25
Last Quarter
Dec 2
New
Dec 9
First Quarter
Dec 17
Full

Hourly Weather History & Observations

Time (CST) Temp. Windchill Dew Point Humidity Pressure Visibility Wind Dir Wind Speed Gust Speed Precip Events Conditions
12:15 AM 30.2 °F 19.8 °F 17.6 °F 60% 30.45 in 10.0 mi North 13.8 mph 19.6 mph N/A   Clear
12:35 AM 28.4 °F 16.2 °F 15.8 °F 59% 30.45 in 10.0 mi North 17.3 mph 21.9 mph N/A   Clear
12:55 AM 28.4 °F 17.0 °F 15.8 °F 59% 30.46 in 10.0 mi North 15.0 mph 24.2 mph N/A   Clear
1:15 AM 28.4 °F 17.5 °F 15.8 °F 59% 30.47 in 10.0 mi North 13.8 mph 23.0 mph N/A   Clear
1:35 AM 28.4 °F 17.0 °F 15.8 °F 59% 30.47 in 10.0 mi North 15.0 mph 24.2 mph N/A   Clear
1:55 AM 28.4 °F 21.2 °F 15.8 °F 59% 30.48 in 10.0 mi North 6.9 mph 23.0 mph N/A   Clear
2:15 AM 26.6 °F 16.2 °F 15.8 °F 64% 30.49 in 10.0 mi North 11.5 mph 21.9 mph N/A   Clear
2:35 AM 26.6 °F 16.2 °F 14.0 °F 59% 30.48 in 10.0 mi North 11.5 mph 20.7 mph N/A   Clear
2:55 AM 26.6 °F 14.7 °F 14.0 °F 59% 30.48 in 10.0 mi North 15.0 mph 20.7 mph N/A   Clear
3:15 AM 26.6 °F 15.2 °F 14.0 °F 59% 30.48 in 10.0 mi North 13.8 mph - N/A   Clear
3:35 AM 26.6 °F 14.7 °F 14.0 °F 59% 30.48 in 10.0 mi North 15.0 mph 21.9 mph N/A   Clear
3:55 AM 26.6 °F 13.8 °F 14.0 °F 59% 30.49 in 10.0 mi North 17.3 mph 21.9 mph N/A   Clear
4:15 AM 24.8 °F 11.9 °F 14.0 °F 64% 30.49 in 10.0 mi North 16.1 mph 23.0 mph N/A   Clear
4:35 AM 24.8 °F 13.4 °F 14.0 °F 64% 30.50 in 10.0 mi North 12.7 mph 21.9 mph N/A   Clear
4:55 AM 24.8 °F 16.9 °F 14.0 °F 64% 30.50 in 10.0 mi North 6.9 mph 21.9 mph N/A   Clear
5:15 AM 24.8 °F 15.3 °F 14.0 °F 64% 30.51 in 10.0 mi NNE 9.2 mph 18.4 mph N/A   Clear
5:35 AM 24.8 °F 14.6 °F 14.0 °F 64% 30.52 in 10.0 mi North 10.4 mph - N/A   Clear
5:55 AM 23.0 °F 12.4 °F 14.0 °F 68% 30.52 in 10.0 mi North 10.4 mph 18.4 mph N/A   Clear
6:15 AM 23.0 °F 11.7 °F 12.2 °F 63% 30.54 in 10.0 mi North 11.5 mph 18.4 mph N/A   Clear
6:35 AM 23.0 °F 11.1 °F 12.2 °F 63% 30.54 in 10.0 mi North 12.7 mph 18.4 mph N/A   Clear
6:55 AM 23.0 °F 13.1 °F 12.2 °F 63% 30.55 in 10.0 mi North 9.2 mph - N/A   Clear
7:15 AM 23.0 °F 12.4 °F 12.2 °F 63% 30.56 in 10.0 mi North 10.4 mph 17.3 mph N/A   Clear
7:35 AM 24.8 °F 16.9 °F 12.2 °F 59% 30.57 in 10.0 mi NNE 6.9 mph - N/A   Clear
7:55 AM 26.6 °F 19.1 °F 12.2 °F 55% 30.58 in 10.0 mi NNE 6.9 mph 17.3 mph N/A   Clear
8:15 AM 26.6 °F 15.2 °F 10.4 °F 51% 30.58 in 10.0 mi NNE 13.8 mph 19.6 mph N/A   Clear
8:35 AM 28.4 °F 17.5 °F 10.4 °F 47% 30.58 in 10.0 mi NNE 13.8 mph 20.7 mph N/A   Clear
8:55 AM 28.4 °F 18.5 °F 10.4 °F 47% 30.57 in 10.0 mi NNE 11.5 mph 17.3 mph N/A   Clear
9:15 AM 30.2 °F 20.8 °F 10.4 °F 44% 30.58 in 10.0 mi NNE 11.5 mph - N/A   Clear
9:35 AM 30.2 °F 23.4 °F 10.4 °F 44% 30.57 in 10.0 mi NE 6.9 mph 19.6 mph N/A   Clear
9:55 AM 30.2 °F 20.8 °F 10.4 °F 44% 30.58 in 10.0 mi NNE 11.5 mph 16.1 mph N/A   Clear
10:15 AM 32.0 °F 23.6 °F 10.4 °F 41% 30.57 in 10.0 mi NNE 10.4 mph 17.3 mph N/A   Clear
10:35 AM 32.0 °F 25.6 °F 8.6 °F 38% 30.56 in 10.0 mi NE 6.9 mph 16.1 mph N/A   Clear
10:55 AM 32.0 °F - 8.6 °F 38% 30.55 in 10.0 mi Calm Calm - N/A   Clear
11:15 AM 32.0 °F 23.6 °F 8.6 °F 38% 30.54 in 10.0 mi NNE 10.4 mph - N/A   Clear
11:35 AM 33.8 °F - 8.6 °F 35% 30.52 in 10.0 mi Calm Calm - N/A   Clear
11:55 AM 35.6 °F 27.1 °F 3.2 °F 26% 30.51 in 10.0 mi NE 12.7 mph 18.4 mph N/A   Clear
12:15 PM 35.6 °F 27.5 °F 3.2 °F 26% 30.49 in 10.0 mi NE 11.5 mph 19.6 mph N/A   Clear
12:35 PM 35.6 °F 26.2 °F 3.2 °F 26% 30.47 in 10.0 mi NNE 15.0 mph 20.7 mph N/A   Clear
12:55 PM 35.6 °F 28.0 °F 3.2 °F 26% 30.47 in 10.0 mi NNE 10.4 mph 19.6 mph N/A   Clear
1:15 PM 37.4 °F 30.8 °F 3.2 °F 24% 30.47 in 10.0 mi NE 9.2 mph 17.3 mph N/A   Clear
1:35 PM 37.4 °F 29.3 °F 1.4 °F 22% 30.46 in 10.0 mi NNE 12.7 mph 18.4 mph N/A   Clear
1:55 PM 37.4 °F 30.8 °F 1.4 °F 22% 30.46 in 10.0 mi NNE 9.2 mph - N/A   Clear
2:15 PM 37.4 °F 30.3 °F -0.4 °F 20% 30.46 in 10.0 mi NNE 10.4 mph 18.4 mph N/A   Clear
2:35 PM 37.4 °F 32.1 °F -0.4 °F 20% 30.46 in 10.0 mi NNE 6.9 mph - N/A   Clear
2:55 PM 37.4 °F 30.3 °F -0.4 °F 20% 30.45 in 10.0 mi North 10.4 mph 17.3 mph N/A   Clear
3:15 PM 37.4 °F 30.8 °F -0.4 °F 20% 30.46 in 10.0 mi NE 9.2 mph - N/A   Clear
3:35 PM 37.4 °F 30.3 °F -0.4 °F 20% 30.47 in 10.0 mi North 10.4 mph - N/A   Clear
3:55 PM 37.4 °F 29.8 °F -0.4 °F 20% 30.46 in 10.0 mi North 11.5 mph 17.3 mph N/A   Clear
4:15 PM 35.6 °F 28.6 °F -0.4 °F 22% 30.46 in 10.0 mi NNE 9.2 mph - N/A   Clear
4:35 PM 33.8 °F 27.7 °F 1.4 °F 25% 30.46 in 10.0 mi NNE 6.9 mph - N/A   Clear
4:55 PM 33.8 °F 28.6 °F -0.4 °F 23% 30.46 in 10.0 mi NNE 5.8 mph - N/A   Clear
5:15 PM 32.0 °F 27.5 °F 3.2 °F 30% 30.47 in 10.0 mi North 4.6 mph - N/A   Clear
5:35 PM 32.0 °F 27.5 °F 1.4 °F 27% 30.47 in 10.0 mi NNE 4.6 mph - N/A   Clear
5:55 PM 32.0 °F 27.5 °F 1.4 °F 27% 30.46 in 10.0 mi NNE 4.6 mph - N/A   Clear
6:15 PM 32.0 °F 27.5 °F 3.2 °F 30% 30.46 in 10.0 mi NNE 4.6 mph - N/A   Clear
6:35 PM 32.0 °F 28.7 °F 3.2 °F 30% 30.46 in 10.0 mi North 3.5 mph - N/A   Clear
6:55 PM 32.0 °F 26.4 °F 5.0 °F 32% 30.46 in 10.0 mi NNE 5.8 mph - N/A   Clear
7:15 PM 32.0 °F 25.6 °F 5.0 °F 32% 30.46 in 10.0 mi North 6.9 mph - N/A   Clear
7:35 PM 30.2 °F 26.7 °F 6.8 °F 37% 30.46 in 10.0 mi North 3.5 mph - N/A   Clear
7:55 PM 30.2 °F - 6.8 °F 37% 30.46 in 10.0 mi Calm Calm - N/A   Clear
8:15 PM 30.2 °F - 8.6 °F 40% 30.46 in 10.0 mi Calm Calm - N/A   Clear
8:35 PM 30.2 °F 26.7 °F 8.6 °F 40% 30.46 in 10.0 mi NNE 3.5 mph - N/A   Clear
8:55 PM 30.2 °F - 8.6 °F 40% 30.45 in 10.0 mi Calm Calm - N/A   Clear
9:15 PM 28.4 °F - 10.4 °F 47% 30.45 in 10.0 mi Calm Calm - N/A   Clear
9:35 PM 28.4 °F - 10.4 °F 47% 30.44 in 10.0 mi Calm Calm - N/A   Clear
9:55 PM 28.4 °F - 10.4 °F 47% 30.44 in 10.0 mi Calm Calm - N/A   Clear
10:15 PM 28.4 °F 24.6 °F 12.2 °F 51% 30.44 in 10.0 mi North 3.5 mph - N/A   Clear
10:35 PM 28.4 °F 23.3 °F 12.2 °F 51% 30.44 in 10.0 mi North 4.6 mph - N/A   Clear
10:55 PM 28.4 °F 24.6 °F 12.2 °F 51% 30.44 in 10.0 mi NNE 3.5 mph - N/A   Clear
11:15 PM 28.4 °F - 10.4 °F 47% 30.43 in 10.0 mi Calm Calm - N/A   Clear
11:35 PM 28.4 °F 24.6 °F 12.2 °F 51% 30.44 in 10.0 mi North 3.5 mph - N/A   Clear
11:55 PM 28.4 °F 24.6 °F 12.2 °F 51% 30.43 in 10.0 mi NNE 3.5 mph - N/A   Clear